"Pseudo-MPEC" for P10LfOE

Created 2019 Jan 23 11:18:18 UT using Find_Orb

Click here for an explanation of pseudo-MPECs

 
 Astrometry: 
     P10LfOE  C2019 01 09[s\AstrometrywtRE?:oD5kmR_redacted;Fs2L.fsWG7Y(0Y_p1F51
     P10LfOE  C2019 01 09*5%Sclick3oD'G][G1HtMV`G3WHhereJ6*5,ctOXlTeYI/`KGBLXF51
     P10LfOE  C2019 01 09j_a`4forr.8bl'IVUK+gq9RQc7h=explanation3:OW;4XVuF(]^F51
     P10LfOE ^C2019 01 14.44229009 38 58.204+56 12 45.88   ~1F0I 22.59GVNEOCP568
     P10LfOE ^C2019 01 14.44323709 38 58.076+56 12 46.15   ~1F0I 22.85GVNEOCP568
     P10LfOE ^C2019 01 14.44418509 38 57.951+56 12 46.42   ~1F0I 22.73GVNEOCP568

Station data:
(568) Mauna Kea  (N19.826116 W155.472200)  US/Hawaii.
(F51) Pan-STARRS 1, Haleakala  (N20.707235 W156.255910)  US/Hawaii.
   Observers N. Primak, A. Schultz, S. Watters, J. Thiel, T. Goggia. Measurer
   PS1 Science Consortium. 1.8-m Ritchey-Chrétien + CCD.

Orbital elements:  P10LfOE
   Perihelion 2018 Sep 4.611904 +/- 367 TT = 14:41:08 (JD 2458366.111904)
Epoch 2019 Jan 14.0 TT = JDT 2458497.5   Earth MOID: 0.3907   Ma: 0.0022
M  50.11759978 +/- 80               (J2000 ecliptic)          AutoNEOCP
n   0.38144703 +/- 0.198            Peri.   23.12574 +/- 70
a   1.88298366 +/- 0.653            Node    15.41941 +/- 28
e   0.2701513 +/- 0.245             Incl.   17.97054 +/- 33
P   2.58/943.76d           H 21.1   G  0.15   U 11.7  SR
q 1.37429311 +/- 0.868    Q 2.39167421 +/- 6.87
From 6 observations 2019 Jan. 9-14; mean residual 0".19
Residuals in arcseconds: 
190109 F51  .22-  .33+    190109 F51  .33+  .37-    190114 568  .01-  .00     
190109 F51  .11-  .04+    190114 568  .00   .03-    190114 568  .00   .03+    

Ephemerides (geocentric):
Date (UTC) HH   RA              Dec         delta   r     elong  mag " sig PA
---- -- -- --  -------------   -----------  ------ ------ -----  --- ---- ---
2019 01 23 11  09 18 18.616   +56 18 44.85  .80727 1.6931 141.7 22.8 1405 150
2019 01 23 12  09 18 12.611   +56 18 38.25  .80739 1.6933 141.7 22.8 1416 150
2019 01 23 13  09 18 06.606   +56 18 31.58  .80750 1.6934 141.7 22.8 1427 150
2019 01 23 14  09 18 00.600   +56 18 24.83  .80762 1.6936 141.7 22.8 1438 150
2019 01 23 15  09 17 54.594   +56 18 18.01  .80773 1.6937 141.7 22.8 1450 150
2019 01 23 16  09 17 48.586   +56 18 11.10  .80785 1.6938 141.7 22.8 1461 150
2019 01 23 17  09 17 42.578   +56 18 04.12  .80797 1.6940 141.7 22.8 1472 150
2019 01 23 18  09 17 36.570   +56 17 57.06  .80809 1.6941 141.7 22.8 1484 149
2019 01 23 19  09 17 30.560   +56 17 49.91  .80820 1.6943 141.7 22.8 1495 149
2019 01 23 20  09 17 24.551   +56 17 42.70  .80832 1.6944 141.7 22.8 1507 149
2019 01 23 21  09 17 18.540   +56 17 35.40  .80844 1.6946 141.7 22.8 1518 149
2019 01 23 22  09 17 12.529   +56 17 28.02  .80856 1.6947 141.7 22.8 1530 149
2019 01 23 23  09 17 06.517   +56 17 20.57  .80868 1.6949 141.7 22.8 1541 149
2019 01 24 00  09 17 00.505   +56 17 13.04  .80880 1.6950 141.7 22.8 1553 149
2019 01 24 01  09 16 54.493   +56 17 05.43  .80892 1.6952 141.7 22.8 1565 149
2019 01 24 02  09 16 48.480   +56 16 57.74  .80904 1.6953 141.7 22.8 1576 149
2019 01 24 03  09 16 42.466   +56 16 49.97  .80916 1.6954 141.8 22.8 1588 149
2019 01 24 04  09 16 36.452   +56 16 42.12  .80928 1.6956 141.8 22.8 1600 149
2019 01 24 05  09 16 30.438   +56 16 34.20  .80940 1.6957 141.8 22.8 1612 149
2019 01 24 06  09 16 24.423   +56 16 26.20  .80952 1.6959 141.8 22.8 1624 149
2019 01 24 07  09 16 18.408   +56 16 18.11  .80964 1.6960 141.8 22.8 1636 149
2019 01 24 08  09 16 12.393   +56 16 09.95  .80976 1.6962 141.8 22.8 1648 149
2019 01 24 09  09 16 06.378   +56 16 01.72  .80988 1.6963 141.8 22.8 1660 149
2019 01 24 10  09 16 00.362   +56 15 53.40  .81001 1.6965 141.8 22.8 1672 149
2019 01 24 11  09 15 54.346   +56 15 45.01  .81013 1.6966 141.8 22.8 1684 149
2019 01 24 12  09 15 48.329   +56 15 36.53  .81025 1.6968 141.8 22.8 1697 149
2019 01 24 13  09 15 42.313   +56 15 27.98  .81037 1.6969 141.8 22.8 1709 149
2019 01 24 14  09 15 36.296   +56 15 19.35  .81050 1.6970 141.8 22.8 1721 149
2019 01 24 15  09 15 30.279   +56 15 10.64  .81062 1.6972 141.8 22.8 1734 149
2019 01 24 16  09 15 24.262   +56 15 01.85  .81075 1.6973 141.8 22.8 1746 149
2019 01 24 17  09 15 18.245   +56 14 52.99  .81087 1.6975 141.8 22.8 1758 149
2019 01 24 18  09 15 12.228   +56 14 44.05  .81100 1.6976 141.8 22.8 1771 149
2019 01 24 19  09 15 06.211   +56 14 35.02  .81112 1.6978 141.8 22.8 1783 149
2019 01 24 20  09 15 00.194   +56 14 25.92  .81125 1.6979 141.8 22.8 1796 148
2019 01 24 21  09 14 54.177   +56 14 16.74  .81137 1.6981 141.8 22.8 1809 148
2019 01 24 22  09 14 48.160   +56 14 07.48  .81150 1.6982 141.9 22.8 1821 148
2019 01 24 23  09 14 42.143   +56 13 58.15  .81162 1.6984 141.9 22.8 1834 148
2019 01 25 00  09 14 36.126   +56 13 48.73  .81175 1.6985 141.9 22.8 1847 148
2019 01 25 01  09 14 30.109   +56 13 39.24  .81188 1.6987 141.9 22.8 1860 148
2019 01 25 02  09 14 24.093   +56 13 29.67  .81200 1.6988 141.9 22.8 1873 148
2019 01 25 03  09 14 18.076   +56 13 20.02  .81213 1.6989 141.9 22.8 1886 148
2019 01 25 04  09 14 12.060   +56 13 10.29  .81226 1.6991 141.9 22.8 1899 148
2019 01 25 05  09 14 06.044   +56 13 00.49  .81239 1.6992 141.9 22.8 1912 148
2019 01 25 06  09 14 00.028   +56 12 50.60  .81251 1.6994 141.9 22.8 1925 148
2019 01 25 07  09 13 54.012   +56 12 40.64  .81264 1.6995 141.9 22.8 1938 148
2019 01 25 08  09 13 47.997   +56 12 30.59  .81277 1.6997 141.9 22.8 1951 148
2019 01 25 09  09 13 41.982   +56 12 20.47  .81290 1.6998 141.9 22.8 1964 148
2019 01 25 10  09 13 35.967   +56 12 10.28  .81303 1.7000 141.9 22.8 1977 148